Weather Roundup
Issued by NWS Springfield, MO

Home | Current Version | Previous Version | Text Only | Print | Product List | Glossary On
Versions: 1 2 3 4 5 6 7 8 9 10 11 12 13 14 15 16 17 18 19 20 21 22 23 24 25 26 27 28 29 30 31 32 33 34 35 36 37 38 39 40 41 42 43 44 45 46 47 48 49 50
000
NZUS99 KSGF 250907
HRRSGF

HOURLY WEATHER
NATIONAL WEATHER SERVICE SPRINGFIELD MO
400 AM CDT FRI JUL 25 2014

......SGF CWA......

CITY           SKY/WX    TMP DP  RH WIND       PRES   REMARKS
SPRINGFIELD    CLEAR     67  58  72 S12       30.01S
JOPLIN         MOCLDY    70  64  81 S8        29.98F
WEST PLAINS    CLEAR     63  56  78 CALM      30.06F
ROLLA          CLEAR     64  54  69 S9        30.01S
OSAGE BEACH    PTCLDY    63  54  72 S7        29.99F
BRANSON        MOCLDY    66  61  82 S3        30.05R

......SURROUNDING SGF CWA......

CITY           SKY/WX    TMP DP  RH WIND       PRES   REMARKS
CHANUTE        PTCLDY    73  70  90 SE8       29.95S
PARSONS        PTCLDY    73  69  87 S5        29.97S
COFFEYVILLE    PTCLDY    73  71  93 S8        29.95F
EMPORIA        CLOUDY    75  70  84 S15       29.90F
GROVE OK       PTCLDY    72  72 100 S7        29.99F
ROGERS AR      CLEAR     69  66  90 S7        30.04F
SILOAM SPRINGS CLEAR     70  63  78 S8        30.03S
HARRISON AR    CLEAR     65  64  97 SE10      30.04F
NEAR YELLVILLE CLEAR     63  61  94 CALM      30.04F

......KANSAS AND MISSOURI......

CITY           SKY/WX    TMP DP  RH WIND       PRES   REMARKS
KANSAS CTY INT MOCLDY    71  60  68 S13       29.88F
DOWNTOWN KC    MOCLDY    74  59  59 S12       29.88F
COLUMBIA       MOCLDY    63  55  75 SE9       29.99F
SEDALIA        MOCLDY    66  56  70 S9        29.94F
ST JOSEPH      MOCLDY    72  60  66 S9        29.87F
ST LOUIS       MOCLDY    65  57  75 E7        30.02F
SPIRIT OF STL  CLEAR     59  55  87 CALM      30.00F
KIRKSVILLE     CLOUDY    64  55  72 S13       29.98R
WICHITA        PTCLDY    75  70  84 S12       29.93F
TOPEKA         CLOUDY    76  67  73 S5        29.87F
OLATHE         PTCLDY    70  60  70 S9        29.90F

......TENNESSEE......

CITY           SKY/WX    TMP DP  RH WIND       PRES   REMARKS
MEMPHIS        CLEAR     69  60  73 CALM      30.02R
NASHVILLE      CLEAR     64  58  80 NE6       30.04R

......ARKANSAS.......

CITY           SKY/WX    TMP DP  RH WIND       PRES   REMARKS
FAYETTEVILLE   CLEAR     68  67  96 CALM      30.03S
FT SMITH       PTCLDY    72  70  93 NE6       30.00F
LITTLE ROCK    CLEAR     65  62  90 CALM      30.04R

......OKLAHOMA.......

CITY           SKY/WX    TMP DP  RH WIND       PRES   REMARKS
TULSA          PTCLDY    76  71  85 S12       29.96F
PONCA CITY     PTCLDY    78  69  73 S14G20    29.95F
MCALESTER      PTCLDY    73  71  93 S3        30.02F FOG
OKLAHOMA CITY  PTCLDY    72  67  84 S6        30.00S

......IOWA............

CITY           SKY/WX    TMP DP  RH WIND       PRES   REMARKS
DES MOINES     CLOUDY    66  61  84 E12       29.93S
QUAD CITIES    PTCLDY    61  55  81 SE8       30.00R

......ILLINOIS........

CITY           SKY/WX    TMP DP  RH WIND       PRES   REMARKS
QUINCY         CLOUDY    63  53  70 SE7       30.02R
CHICAGO        CLEAR     56  48  74 S5        30.04F




USA.gov is the U.S. government's official web portal to all federal, state and local government web resources and services.